| time (UTC) | temp C | wind direction | speed KPH | gust KPH | rain 1hr cm | rain 24hr cm | rain mn cm | humidity % | barometer mb |
| 20260507111529 | 8 | 131 | 0.0 | 0.0 | 0.00 | 0.00 | 0.00 | 71 | 1042.7 |
| 20260507110027 | 9 | 131 | 0.0 | 0.0 | 0.00 | 0.00 | 0.00 | 70 | 1042.7 |
| 20260507104526 | 9 | 131 | 0.0 | 0.0 | 0.00 | 0.00 | 0.00 | 70 | 1042.7 |
| 20260507103024 | 10 | 204 | 0.0 | 0.0 | 0.00 | 0.00 | 0.00 | 70 | 1042.7 |
| 20260507101520 | 10 | 204 | 0.0 | 0.0 | 0.00 | 0.00 | 0.00 | 69 | 1042.7 |
| 20260507100018 | 10 | 204 | 0.0 | 0.0 | 0.00 | 0.00 | 0.00 | 70 | 1042.7 |
| 20260507094518 | 10 | 205 | 0.0 | 0.0 | 0.00 | 0.00 | 0.00 | 70 | 1042.7 |
| 20260507093017 | 10 | 205 | 0.0 | 0.0 | 0.00 | 0.00 | 0.00 | 70 | 1042.7 |
| 20260507091521 | 10 | 205 | 0.0 | 0.0 | 0.00 | 0.00 | 0.00 | 70 | 1042.7 |
| 20260507090015 | 11 | 205 | 0.0 | 3.2 | 0.00 | 0.00 | 0.00 | 70 | 1042.7 |
| 20260507084516 | 11 | 244 | 0.0 | 0.0 | 0.00 | 0.00 | 0.00 | 70 | 1042.7 |
| 20260507083014 | 11 | 244 | 0.0 | 0.0 | 0.00 | 0.00 | 0.00 | 70 | 1042.7 |
| 20260507081513 | 11 | 244 | 0.0 | 4.8 | 0.00 | 0.00 | 0.00 | 70 | 1042.7 |
| 20260507080010 | 11 | 224 | 0.0 | 4.8 | 0.00 | 0.00 | 0.00 | 69 | 1042.7 |
| 20260507074510 | 11 | 196 | 0.0 | 4.8 | 0.00 | 0.00 | 0.00 | 69 | 1042.7 |
| 20260507073009 | 11 | 216 | 0.0 | 0.0 | 0.00 | 0.00 | 0.00 | 69 | 1042.7 |
| 20260507071520 | 11 | 219 | 0.0 | 4.8 | 0.00 | 0.00 | 0.00 | 69 | 1042.7 |
| 20260507070010 | 11 | 209 | 0.0 | 6.4 | 0.00 | 0.00 | 0.00 | 69 | 1042.7 |
| 20260507064506 | 11 | 199 | 0.0 | 4.8 | 0.00 | 0.00 | 0.00 | 68 | 1042.7 |
| 20260507063005 | 11 | 236 | 0.0 | 3.2 | 0.00 | 0.00 | 0.00 | 68 | 1042.7 |
| 20260507061505 | 11 | 242 | 0.0 | 0.0 | 0.00 | 0.00 | 0.00 | 68 | 1042.7 |
| 20260507060004 | 11 | 242 | 0.0 | 0.0 | 0.00 | 0.00 | 0.00 | 68 | 1042.7 |
| 20260507054504 | 11 | 242 | 0.0 | 0.0 | 0.00 | 0.00 | 0.00 | 68 | 1042.7 |
| 20260507053004 | 12 | 238 | 0.0 | 3.2 | 0.00 | 0.00 | 0.00 | 68 | 1042.7 |
| 20260507051503 | 11 | 239 | 0.0 | 0.0 | 0.00 | 0.00 | 0.00 | 68 | 1042.7 |
| 20260507050006 | 11 | 239 | 0.0 | 0.0 | 0.00 | 0.00 | 0.00 | 68 | 1042.7 |
| 20260507044502 | 11 | 239 | 0.0 | 0.0 | 0.00 | 0.00 | 0.00 | 69 | 1042.7 |
| 20260507043002 | 11 | 239 | 0.0 | 0.0 | 0.00 | 0.00 | 0.00 | 69 | 1042.7 |
| 20260507041501 | 12 | 239 | 0.0 | 0.0 | 0.00 | 0.00 | 0.00 | 68 | 1042.7 |
| 20260507034600 | 12 | 183 | 0.0 | 0.0 | 0.00 | 0.00 | 0.00 | 69 | 1042.7 |
| 20260507033059 | 12 | 97 | 0.0 | 1.6 | 0.00 | 0.00 | 0.00 | 68 | 1042.7 |
| 20260507031558 | 12 | 97 | 0.0 | 1.6 | 0.00 | 0.00 | 0.00 | 68 | 1042.7 |
| 20260507030058 | 12 | 97 | 0.0 | 1.6 | 0.00 | 0.00 | 0.00 | 67 | 1042.7 |
| 20260507024557 | 12 | 97 | 0.0 | 0.0 | 0.00 | 0.00 | 0.00 | 67 | 1042.7 |
| 20260507023057 | 12 | 97 | 0.0 | 0.0 | 0.00 | 0.00 | 0.00 | 67 | 1042.7 |
| 20260507021556 | 12 | 227 | 0.0 | 0.0 | 0.00 | 0.00 | 0.00 | 67 | 1042.7 |
| 20260507020111 | 12 | 227 | 0.0 | 1.6 | 0.00 | 0.00 | 0.00 | 67 | 1042.7 |
| 20260507014559 | 12 | 232 | 0.0 | 4.8 | 0.00 | 0.00 | 0.00 | 66 | 1042.7 |
| 20260507013054 | 12 | 196 | 0.0 | 1.6 | 0.00 | 0.00 | 0.00 | 65 | 1042.7 |
| 20260507011554 | 12 | 243 | 1.6 | 11.3 | 0.00 | 0.00 | 0.00 | 64 | 1042.7 |
| 20260507010104 | 12 | 195 | 0.0 | 3.2 | 0.00 | 0.00 | 0.00 | 64 | 1042.7 |
| 20260507004551 | 12 | 215 | 1.6 | 9.7 | 0.00 | 0.00 | 0.00 | 63 | 1042.7 |
| 20260507003051 | 12 | 234 | 3.2 | 11.3 | 0.00 | 0.00 | 0.00 | 63 | 1042.7 |
| 20260507001556 | 12 | 242 | 1.6 | 9.7 | 0.00 | 0.00 | 0.00 | 64 | 1042.7 |
| 20260507000049 | 13 | 217 | 4.8 | 9.7 | 0.00 | 0.00 | 0.00 | 62 | 1042.7 |
| 20260506234552 | 12 | 221 | 1.6 | 9.7 | 0.00 | 0.00 | 0.00 | 63 | 1042.7 |
| 20260506233048 | 12 | 227 | 3.2 | 11.3 | 0.00 | 0.00 | 0.00 | 62 | 1042.7 |
| 20260506231605 | 13 | 187 | 1.6 | 12.9 | 0.00 | 0.00 | 0.00 | 62 | 1042.7 |
| 20260506230104 | 13 | 198 | 4.8 | 14.5 | 0.00 | 0.00 | 0.00 | 61 | 1042.7 |
| 20260506224547 | 13 | 188 | 3.2 | 16.1 | 0.00 | 0.00 | 0.00 | 60 | 1042.7 |
| 20260506223046 | 13 | 178 | 1.6 | 14.5 | 0.00 | 0.00 | 0.00 | 59 | 1042.7 |
| 20260506221602 | 13 | 209 | 3.2 | 11.3 | 0.00 | 0.00 | 0.00 | 59 | 1042.7 |
| 20260506220100 | 13 | 162 | 4.8 | 12.9 | 0.00 | 0.00 | 0.00 | 59 | 1042.7 |
| 20260506214548 | 13 | 175 | 3.2 | 8.0 | 0.00 | 0.00 | 0.00 | 59 | 1042.7 |
| 20260506213100 | 13 | 178 | 4.8 | 11.3 | 0.00 | 0.00 | 0.00 | 58 | 1042.7 |
| 20260506211542 | 13 | 239 | 4.8 | 14.5 | 0.00 | 0.00 | 0.00 | 59 | 1042.7 |
| 20260506210053 | 13 | 221 | 1.6 | 9.7 | 0.00 | 0.00 | 0.00 | 60 | 1042.7 |
| 20260506204541 | 13 | 218 | 3.2 | 11.3 | 0.00 | 0.00 | 0.00 | 60 | 1042.7 |
| 20260506203039 | 13 | 198 | 4.8 | 11.3 | 0.00 | 0.00 | 0.00 | 60 | 1042.7 |
| 20260506201539 | 13 | 222 | 1.6 | 14.5 | 0.00 | 0.00 | 0.00 | 61 | 1042.7 |
| 20260506200036 | 12 | 193 | 4.8 | 22.5 | 0.00 | 0.00 | 0.00 | 61 | 1042.7 |
| 20260506194533 | 12 | 257 | 4.8 | 17.7 | 0.00 | 0.00 | 0.00 | 61 | 1042.7 |
| 20260506193031 | 12 | 184 | 3.2 | 12.9 | 0.00 | 0.00 | 0.00 | 62 | 1042.7 |
| 20260506191533 | 12 | 233 | 1.6 | 12.9 | 0.00 | 0.00 | 0.00 | 63 | 1042.7 |
| 20260506190030 | 12 | 207 | 1.6 | 12.9 | 0.00 | 0.00 | 0.00 | 64 | 1042.7 |
| 20260506184527 | 12 | 209 | 4.8 | 14.5 | 0.00 | 0.00 | 0.00 | 64 | 1042.7 |
| 20260506183023 | 12 | 159 | 1.6 | 17.7 | 0.00 | 0.00 | 0.00 | 66 | 1042.7 |
| 20260506181519 | 12 | 195 | 0.0 | 16.1 | 0.00 | 0.00 | 0.00 | 67 | 1042.7 |
| 20260506180023 | 11 | 207 | 0.0 | 8.0 | 0.00 | 0.00 | 0.00 | 69 | 1042.7 |
| 20260506174523 | 11 | 256 | 4.8 | 12.9 | 0.00 | 0.00 | 0.00 | 71 | 1042.7 |
| 20260506173015 | 11 | 269 | 1.6 | 4.8 | 0.00 | 0.00 | 0.00 | 72 | 1042.7 |
| 20260506171522 | 11 | 192 | 1.6 | 9.7 | 0.00 | 0.00 | 0.00 | 71 | 1042.7 |
| 20260506170013 | 11 | 188 | 1.6 | 8.0 | 0.00 | 0.00 | 0.00 | 71 | 1042.7 |
| 20260506164510 | 11 | 238 | 1.6 | 9.7 | 0.00 | 0.00 | 0.00 | 70 | 1042.7 |
| 20260506163009 | 11 | 193 | 1.6 | 6.4 | 0.00 | 0.00 | 0.00 | 70 | 1042.7 |
| 20260506161509 | 11 | 244 | 0.0 | 9.7 | 0.00 | 0.00 | 0.00 | 72 | 1042.7 |
| 20260506160010 | 11 | 213 | 0.0 | 9.7 | 0.00 | 0.00 | 0.00 | 72 | 1042.7 |
| 20260506154512 | 11 | 181 | 0.0 | 6.4 | 0.00 | 0.00 | 0.00 | 73 | 1042.7 |
| 20260506153007 | 11 | 184 | 1.6 | 11.3 | 0.00 | 0.00 | 0.00 | 73 | 1042.7 |
| 20260506151507 | 11 | 238 | 0.0 | 3.2 | 0.00 | 0.00 | 0.00 | 73 | 1042.7 |
| 20260506150006 | 11 | 228 | 0.0 | 9.7 | 0.00 | 0.00 | 0.00 | 73 | 1042.7 |
| 20260506144505 | 11 | 196 | 0.0 | 6.4 | 0.00 | 0.00 | 0.00 | 73 | 1042.7 |
| 20260506143006 | 11 | 180 | 0.0 | 8.0 | 0.00 | 0.00 | 0.00 | 73 | 1042.7 |
| 20260506141504 | 11 | 174 | 0.0 | 3.2 | 0.00 | 0.00 | 0.00 | 73 | 1042.7 |
| 20260506140007 | 10 | 190 | 0.0 | 3.2 | 0.00 | 0.00 | 0.00 | 72 | 1042.7 |
| 20260506134502 | 11 | 215 | 1.6 | 12.9 | 0.00 | 0.00 | 0.00 | 72 | 1042.7 |
| 20260506133102 | 11 | 229 | 0.0 | 0.0 | 0.00 | 0.00 | 0.00 | 72 | 1042.7 |
| 20260506131617 | 11 | 221 | 0.0 | 0.0 | 0.00 | 0.00 | 0.00 | 72 | 1042.7 |
| 20260506131503 | 11 | 206 | 0.0 | 0.0 | 0.00 | 0.00 | 0.00 | 72 | 1042.7 |
| 20260506130057 | 11 | 230 | 0.0 | 8.0 | 0.00 | 0.00 | 0.00 | 72 | 1042.7 |
| 20260506124557 | 11 | 216 | 0.0 | 3.2 | 0.00 | 0.00 | 0.00 | 72 | 1042.7 |
| 20260506123057 | 11 | 199 | 0.0 | 8.0 | 0.00 | 0.00 | 0.00 | 72 | 1042.7 |
| 20260506121559 | 11 | 201 | 0.0 | 1.6 | 0.00 | 0.00 | 0.00 | 72 | 1042.7 |
| 20260506120056 | 11 | 244 | 3.2 | 11.3 | 0.00 | 0.00 | 0.00 | 72 | 1042.7 |
| 20260506114558 | 11 | 193 | 0.0 | 4.8 | 0.00 | 0.00 | 0.00 | 72 | 1042.7 |
| 20260506113056 | 11 | 238 | 0.0 | 0.0 | 0.00 | 0.00 | 0.00 | 72 | 1042.7 |